Weather History for GMFO - December, 2013

Change the Weather History Date:

Sunday, December 1, 2013

  Actual Average Record
Temperature  
Mean Temperature 40 °F -  
Max Temperature 49 °F 60 °F 71 °F (2006)
Min Temperature 32 °F 41 °F 32 °F (2013)
Degree Days  
Heating Degree Days 24    
Moisture  
Dew Point 42 °F    
Average Humidity 86    
Maximum Humidity 100    
Minimum Humidity 48    
Precipitation  
Precipitation 0.35 in 0.06 in - ()
Sea Level Pressure  
Sea Level Pressure 29.88 in    
Wind  
Wind Speed 8 mph ()    
Max Wind Speed 17 mph    
Max Gust Speed -    
Visibility 4.7 miles    
Events Rain    
Averages and records for this station are not official NWS values.
T = Trace of Precipitation, MM = Missing Value Source: Averaged Metar Reports

Daily Weather History Graph

Daily Weather History Graph

Search for Another Location

Airport or City:

Trip Planner

Search our weather history database for the weather conditions in past years. The results will help you decide how hot, cold, wet, or windy it might be!

Date:

Astronomy

Dec. 01, 2013 Rise Set
Actual Time 6:56 AM WET 4:56 PM WET
Civil Twilight 6:29 AM WET 5:24 PM WET
Nautical Twilight 5:57 AM WET 5:55 PM WET
Astronomical Twilight 5:27 AM WET 6:25 PM WET
Moon 5:02 AM WET (12/1) 3:51 PM WET (12/1)
Length of Visible Light 10h 55m
Length of Day
9h 59m
Waning Crescent, 3% of the Moon is Illuminated
Dec 1
Waning Crescent
Dec 3
New
Dec 9
First Quarter
Dec 17
Full
Dec 25
Last Quarter

Hourly Weather History & Observations

Time (WET) Temp. Windchill Dew Point Humidity Pressure Visibility Wind Dir Wind Speed Gust Speed Precip Events Conditions
12:00 AM 44 °F - 35 °F 61% 29.88 in 6 mi SSW 4.6 mph - -   Overcast
12:00 AM 44.6 °F 42.2 °F 35.6 °F 71% 29.83 in 6.2 mi SSW 4.6 mph - N/A   Scattered Clouds
3:00 AM 45 °F - 40 °F 77% 29.84 in 6 mi NNE 16.1 mph - - Rain Light Rain
3:00 AM 44.6 °F 37.4 °F 41.0 °F 87% 29.80 in 6.2 mi NNE 16.1 mph - N/A   Mostly Cloudy
5:00 AM 60.8 °F - 41.0 °F 48% 29.80 in 6.2 mi South 4.6 mph - N/A   Mostly Cloudy
6:00 AM 42 °F - 40 °F 88% 29.89 in 6 mi East 3.5 mph - - Rain Light Rain
7:46 AM 41.0 °F 34.3 °F 39.2 °F 93% 29.86 in 3.7 mi SW 11.5 mph - N/A Rain Light Rain
8:00 AM 41.0 °F 34.3 °F 39.2 °F 93% 29.86 in 3.7 mi SW 11.5 mph - N/A Rain Light Rain
8:46 AM 42.8 °F 37.5 °F 41.0 °F 93% 29.89 in 6.2 mi WSW 9.2 mph - N/A   Mostly Cloudy
9:00 AM 42 °F - 40 °F 91% 29.92 in 6 mi WSW 9.2 mph - - Rain Light Rain
9:00 AM 42.8 °F 37.5 °F 41.0 °F 93% 29.89 in 6.2 mi WSW 9.2 mph - N/A   Mostly Cloudy
10:00 AM 44.6 °F 39.7 °F 41.0 °F 87% 29.89 in 5.0 mi West 9.2 mph - N/A Rain Light Rain
12:00 PM 45 °F - 43 °F 88% 29.90 in 3 mi WNW 15.0 mph - - Rain Light Rain
12:00 PM 44.6 °F 37.8 °F 42.8 °F 93% 29.86 in 3.1 mi WNW 15.0 mph - N/A Rain Light Rain
1:00 PM 46.4 °F 41.1 °F 44.6 °F 93% 29.86 in 3.1 mi NNW 11.5 mph - N/A Rain Light Rain
2:00 PM 48.2 °F - 46.4 °F 93% 29.86 in 3.1 mi North 17.3 mph - N/A Rain Light Rain
3:00 PM 49 °F - 47 °F 89% 29.90 in 3 mi North 17.3 mph - - Rain Light Rain
6:00 PM 47 °F - 45 °F 88% 29.97 in 4 mi North 3.5 mph - -   Partly Cloudy
6:00 PM 46.4 °F - 44.6 °F 93% 29.95 in 3.7 mi NNE 2.3 mph - N/A   Mostly Cloudy
10:00 PM 42.8 °F - 41.0 °F 93% 29.86 in 3.7 mi Calm Calm - N/A   Mostly Cloudy
11:00 PM 44.6 °F 43.1 °F 44.6 °F 100% 30.01 in 5.0 mi West 3.5 mph - N/A   Scattered Clouds